| time (UTC) | temp F | wind direction | speed MPH | gust MPH | rain 1hr in | rain 24hr in | rain mn in | humidity % | barometer mb |
| 20260902211529 | 68 | 96 | 0.0 | 0.0 | 0.00 | 0.00 | 0.00 | 76 | 1025.2 |
| 20260902210049 | 68 | 104 | 0.0 | 0.0 | 0.00 | 0.00 | 0.00 | 78 | 1025.2 |
| 20260902204533 | 68 | 92 | 0.0 | 0.0 | 0.00 | 0.00 | 0.00 | 79 | 1025.2 |
| 20260902203027 | 68 | 101 | 0.0 | 0.0 | 0.00 | 0.00 | 0.00 | 77 | 1025.3 |
| 20260902201532 | 68 | 86 | 0.0 | 0.0 | 0.00 | 0.00 | 0.00 | 78 | 1025.6 |
| 20260902200026 | 69 | 105 | 0.0 | 0.0 | 0.00 | 0.00 | 0.00 | 76 | 1025.7 |
| 20260902194532 | 69 | 65 | 0.0 | 0.0 | 0.00 | 0.00 | 0.00 | 75 | 1026.0 |
| 20260902193024 | 69 | 58 | 0.0 | 0.0 | 0.00 | 0.00 | 0.00 | 75 | 1026.2 |
| 20260902191522 | 70 | 338 | 0.0 | 0.0 | 0.00 | 0.00 | 0.00 | 73 | 1026.2 |
| 20260902190030 | 70 | 109 | 0.0 | 0.0 | 0.00 | 0.00 | 0.00 | 76 | 1025.9 |
| 20260902184530 | 69 | 120 | 0.0 | 0.0 | 0.00 | 0.00 | 0.00 | 74 | 1025.7 |
| 20260902183021 | 69 | 101 | 0.0 | 0.0 | 0.00 | 0.00 | 0.00 | 72 | 1025.7 |
| 20260902181521 | 69 | 94 | 0.0 | 0.0 | 0.00 | 0.00 | 0.00 | 76 | 1026.0 |
| 20260902180020 | 69 | 94 | 0.0 | 0.0 | 0.00 | 0.01 | 0.00 | 77 | 1026.3 |
| 20260902174519 | 69 | 96 | 0.0 | 0.0 | 0.00 | 0.01 | 0.00 | 74 | 1026.4 |
| 20260902173019 | 69 | 223 | 0.0 | 0.0 | 0.00 | 0.01 | 0.00 | 74 | 1026.2 |
| 20260902171519 | 69 | 230 | 0.0 | 0.0 | 0.00 | 0.01 | 0.00 | 72 | 1026.4 |
| 20260902170018 | 70 | 262 | 0.0 | 0.0 | 0.00 | 0.01 | 0.00 | 74 | 1026.4 |
| 20260902164517 | 70 | 102 | 0.0 | 0.0 | 0.00 | 0.01 | 0.00 | 75 | 1026.4 |
| 20260902163024 | 70 | 189 | 0.0 | 0.0 | 0.00 | 0.01 | 0.00 | 74 | 1026.3 |
| 20260902161516 | 70 | 335 | 0.0 | 0.0 | 0.00 | 0.01 | 0.00 | 75 | 1026.7 |
| 20260902160014 | 70 | 77 | 0.0 | 0.0 | 0.00 | 0.01 | 0.00 | 77 | 1026.9 |
| 20260902154511 | 69 | 108 | 0.0 | 0.0 | 0.00 | 0.01 | 0.00 | 79 | 1026.9 |
| 20260902153009 | 69 | 119 | 0.0 | 0.0 | 0.00 | 0.01 | 0.00 | 78 | 1027.0 |
| 20260902151516 | 68 | 18 | 0.0 | 0.0 | 0.00 | 0.01 | 0.00 | 81 | 1027.0 |
| 20260902150009 | 68 | 38 | 0.0 | 0.0 | 0.00 | 0.01 | 0.00 | 81 | 1026.9 |
| 20260902144508 | 68 | 233 | 0.0 | 0.0 | 0.00 | 0.01 | 0.00 | 84 | 1026.7 |
| 20260902143100 | 67 | 212 | 0.0 | 0.0 | 0.00 | 0.01 | 0.00 | 85 | 1026.5 |
| 20260902141557 | 66 | 212 | 0.0 | 0.0 | 0.00 | 0.01 | 0.00 | 87 | 1026.3 |
| 20260902140056 | 65 | 326 | 0.0 | 0.0 | 0.00 | 0.01 | 0.00 | 91 | 1026.3 |
| 20260902134552 | 64 | 234 | 0.0 | 0.0 | 0.00 | 0.06 | 0.00 | 93 | 1026.3 |
| 20260902133049 | 63 | 234 | 0.0 | 0.0 | 0.00 | 0.06 | 0.00 | 93 | 1026.3 |
| 20260902131548 | 63 | 19 | 0.0 | 0.0 | 0.00 | 0.06 | 0.00 | 94 | 1026.3 |
| 20260902130049 | 63 | 103 | 0.0 | 0.0 | 0.00 | 0.06 | 0.00 | 94 | 1026.4 |
| 20260902124545 | 63 | 77 | 0.0 | 0.0 | 0.00 | 0.18 | 0.00 | 94 | 1026.2 |
| 20260902123050 | 63 | 86 | 0.0 | 0.0 | 0.00 | 0.18 | 0.00 | 95 | 1026.4 |
| 20260902121543 | 62 | 86 | 0.0 | 0.0 | 0.00 | 0.18 | 0.00 | 95 | 1026.4 |
| 20260902120046 | 62 | 86 | 0.0 | 0.0 | 0.00 | 0.22 | 0.00 | 95 | 1026.4 |
| 20260902114540 | 62 | 86 | 0.0 | 0.0 | 0.00 | 0.22 | 0.00 | 95 | 1026.3 |
| 20260902113046 | 62 | 86 | 0.0 | 0.0 | 0.00 | 0.22 | 0.00 | 95 | 1026.2 |
| 20260902111543 | 61 | 90 | 0.0 | 0.0 | 0.00 | 0.22 | 0.00 | 95 | 1026.1 |
| 20260902110035 | 61 | 90 | 0.0 | 0.0 | 0.00 | 0.22 | 0.00 | 95 | 1025.8 |
| 20260902104540 | 61 | 90 | 0.0 | 0.0 | 0.00 | 0.22 | 0.00 | 95 | 1025.8 |
| 20260902103035 | 61 | 90 | 0.0 | 0.0 | 0.00 | 0.22 | 0.00 | 94 | 1025.7 |
| 20260902101536 | 61 | 87 | 0.0 | 0.0 | 0.00 | 0.22 | 0.00 | 94 | 1025.6 |
| 20260902100032 | 61 | 88 | 0.0 | 0.0 | 0.00 | 0.22 | 0.00 | 94 | 1025.6 |
| 20260902094533 | 61 | 87 | 0.0 | 0.0 | 0.00 | 0.22 | 0.00 | 94 | 1025.4 |
| 20260902093036 | 61 | 87 | 0.0 | 0.0 | 0.00 | 0.22 | 0.00 | 94 | 1025.4 |
| 20260902091529 | 61 | 87 | 0.0 | 0.0 | 0.00 | 0.22 | 0.00 | 94 | 1025.3 |
| 20260902090029 | 61 | 87 | 0.0 | 0.0 | 0.00 | 0.22 | 0.00 | 94 | 1025.1 |
| 20260902084528 | 61 | 87 | 0.0 | 0.0 | 0.00 | 0.22 | 0.00 | 94 | 1025.2 |
| 20260902083028 | 61 | 88 | 0.0 | 0.0 | 0.00 | 0.22 | 0.00 | 94 | 1025.3 |
| 20260902081527 | 61 | 88 | 0.0 | 0.0 | 0.00 | 0.22 | 0.00 | 94 | 1025.3 |
| 20260902080028 | 61 | 87 | 0.0 | 0.0 | 0.00 | 0.22 | 0.00 | 94 | 1025.4 |
| 20260902074526 | 61 | 87 | 0.0 | 0.0 | 0.00 | 0.22 | 0.00 | 94 | 1025.4 |
| 20260902073026 | 61 | 88 | 0.0 | 0.0 | 0.00 | 0.22 | 0.00 | 94 | 1025.3 |
| 20260902071525 | 61 | 87 | 0.0 | 0.0 | 0.00 | 0.22 | 0.00 | 94 | 1025.2 |
| 20260902070024 | 61 | 87 | 0.0 | 0.0 | 0.00 | 0.22 | 0.00 | 94 | 1025.0 |
| 20260902064523 | 61 | 87 | 0.0 | 0.0 | 0.00 | 0.22 | 0.00 | 94 | 1025.1 |
| 20260902063023 | 61 | 87 | 0.0 | 0.0 | 0.00 | 0.22 | 0.00 | 94 | 1025.0 |
| 20260902061539 | 61 | 87 | 0.0 | 0.0 | 0.00 | 0.22 | 0.00 | 94 | 1025.0 |
| 20260902060022 | 61 | 87 | 0.0 | 0.0 | 0.00 | 0.22 | 0.00 | 94 | 1025.2 |
| 20260902054521 | 61 | 87 | 0.0 | 0.0 | 0.00 | 0.22 | 0.00 | 94 | 1025.2 |
| 20260902053020 | 61 | 87 | 0.0 | 0.0 | 0.00 | 0.22 | 0.00 | 94 | 1025.1 |
| 20260902051517 | 61 | 87 | 0.0 | 0.0 | 0.00 | 0.22 | 0.00 | 94 | 1024.8 |
| 20260902050017 | 61 | 87 | 0.0 | 0.0 | 0.00 | 0.22 | 0.00 | 94 | 1024.6 |
| 20260902044514 | 61 | 87 | 0.0 | 0.0 | 0.00 | 0.22 | 0.00 | 94 | 1024.3 |
| 20260902043012 | 61 | 87 | 0.0 | 0.0 | 0.00 | 0.22 | 0.00 | 94 | 1024.0 |
| 20260902041511 | 61 | 87 | 0.0 | 0.0 | 0.00 | 0.22 | 0.00 | 94 | 1024.0 |
| 20260902040011 | 61 | 87 | 0.0 | 0.0 | 0.00 | 0.22 | 0.22 | 94 | 1023.7 |
| 20260902034512 | 61 | 87 | 0.0 | 0.0 | 0.00 | 0.22 | 0.22 | 93 | 1023.6 |
| 20260902033017 | 61 | 87 | 0.0 | 0.0 | 0.00 | 0.22 | 0.22 | 93 | 1023.6 |
| 20260902031508 | 61 | 87 | 0.0 | 0.0 | 0.00 | 0.22 | 0.22 | 93 | 1023.5 |
| 20260902030008 | 61 | 87 | 0.0 | 0.0 | 0.00 | 0.22 | 0.22 | 93 | 1023.4 |
| 20260902024507 | 62 | 87 | 0.0 | 0.0 | 0.00 | 0.22 | 0.22 | 93 | 1023.5 |
| 20260902023007 | 62 | 87 | 0.0 | 0.0 | 0.00 | 0.22 | 0.22 | 93 | 1023.5 |
| 20260902021521 | 62 | 87 | 0.0 | 0.0 | 0.00 | 0.22 | 0.22 | 93 | 1023.5 |
| 20260902020008 | 62 | 87 | 0.0 | 0.0 | 0.00 | 0.22 | 0.22 | 93 | 1023.5 |
| 20260902014505 | 62 | 87 | 0.0 | 0.0 | 0.00 | 0.22 | 0.22 | 93 | 1023.8 |
| 20260902013004 | 63 | 88 | 0.0 | 0.0 | 0.00 | 0.22 | 0.22 | 92 | 1023.6 |
| 20260902011503 | 63 | 87 | 0.0 | 0.0 | 0.00 | 0.22 | 0.22 | 92 | 1023.6 |
| 20260902010002 | 63 | 87 | 0.0 | 0.0 | 0.00 | 0.22 | 0.22 | 92 | 1023.5 |
| 20260902004503 | 63 | 87 | 0.0 | 0.0 | 0.00 | 0.22 | 0.22 | 92 | 1023.3 |
| 20260902003001 | 63 | 87 | 0.0 | 0.0 | 0.00 | 0.22 | 0.22 | 92 | 1023.3 |
| 20260902001559 | 63 | 87 | 0.0 | 0.0 | 0.00 | 0.22 | 0.22 | 91 | 1023.1 |
| 20260902000059 | 64 | 88 | 0.0 | 0.0 | 0.00 | 0.22 | 0.22 | 90 | 1022.7 |
| 20260901234559 | 64 | 87 | 0.0 | 0.0 | 0.00 | 0.22 | 0.22 | 90 | 1022.9 |
| 20260901233058 | 64 | 87 | 0.0 | 0.0 | 0.00 | 0.22 | 0.22 | 89 | 1023.1 |
| 20260901231558 | 65 | 87 | 0.0 | 0.0 | 0.00 | 0.22 | 0.22 | 89 | 1023.1 |
| 20260901230057 | 65 | 87 | 0.0 | 0.0 | 0.00 | 0.22 | 0.22 | 88 | 1023.0 |
| 20260901224558 | 66 | 87 | 0.0 | 0.0 | 0.00 | 0.22 | 0.22 | 87 | 1022.8 |
| 20260901223054 | 66 | 98 | 0.0 | 0.0 | 0.00 | 0.22 | 0.22 | 86 | 1022.7 |
| 20260901221554 | 66 | 95 | 0.0 | 0.0 | 0.00 | 0.22 | 0.22 | 86 | 1022.7 |
| 20260901220057 | 67 | 95 | 0.0 | 0.0 | 0.00 | 0.22 | 0.22 | 85 | 1022.6 |
| 20260901214554 | 67 | 90 | 0.0 | 0.0 | 0.00 | 0.22 | 0.22 | 85 | 1022.5 |
| 20260901213051 | 67 | 94 | 0.0 | 0.0 | 0.00 | 0.22 | 0.22 | 86 | 1022.6 |